MEGLR Weather Reports


time (UTC)temp
C
wind
direction
speed
KPH
gust
KPH
rain 1hr
cm
rain 24hr
cm
rain mn
cm
humidity
%
barometer
mb
20260503230003 28 325 22.5 27.4 0.00 0.00 0.00 22
20260503225003 28 325 20.9 25.7 0.00 0.00 0.00 22
20260503224003 28 330 20.9 24.1 0.00 0.00 0.00 18
20260503223002 27 330 20.9 27.4 0.00 0.00 0.00 18
20260503222002 27 325 17.7 22.5 0.00 0.00 0.00 21
20260503221003 27 340 14.5 20.9 0.00 0.00 0.00 22
20260503220003 27 340 14.5 19.3 0.00 0.00 0.00 27
20260503215003 26 355 9.7 11.3 0.00 0.00 0.00 18
20260503214003 27 35 6.4 8.0 0.00 0.00 0.00 18
20260503213003 28 55 4.8 11.3 0.00 0.00 0.00 16
20260503212003 28 70 11.3 12.9 0.00 0.00 0.00 14
20260503211002 28 65 9.7 11.3 0.00 0.00 0.00 16
20260503210003 28 70 9.7 11.3 0.00 0.00 0.00 18
20260503205003 26 55 6.4 9.7 0.00 0.00 0.00 24
20260503204003 26 55 6.4 9.7 0.00 0.00 0.00 25
20260503203003 27 60 8.0 11.3 0.00 0.00 0.00 25
20260503202004 26 65 8.0 11.3 0.00 0.00 0.00 27
20260503201002 26 70 9.7 12.9 0.00 0.00 0.00 25
20260503200003 26 70 11.3 12.9 0.00 0.00 0.00 27
20260503195003 26 75 9.7 14.5 0.00 0.00 0.00 28
20260503194003 25 70 14.5 16.1 0.00 0.00 0.00 28
20260503193003 25 75 16.1 17.7 0.00 0.00 0.00 29
20260503192003 25 65 12.9 17.7 0.00 0.00 0.00 28
20260503191003 25 75 16.1 19.3 0.00 0.00 0.00 27
20260503190004 24 70 17.7 22.5 0.00 0.00 0.00 27
20260503185002 23 70 20.9 24.1 0.00 0.00 0.00 29
20260503184003 23 70 20.9 25.7 0.00 0.00 0.00 29
20260503183003 23 70 20.9 27.4 0.00 0.00 0.00 29
20260503182003 23 70 22.5 25.7 0.00 0.00 0.00 29
20260503181003 22 70 22.5 25.7 0.00 0.00 0.00 29
20260503180004 22 70 20.9 25.7 0.00 0.00 0.00 28
20260503175003 22 75 24.1 29.0 0.00 0.00 0.00 29
20260503174002 22 80 24.1 29.0 0.00 0.00 0.00 29
20260503173003 22 75 25.7 32.2 0.00 0.00 0.00 30
20260503172003 21 80 30.6 33.8 0.00 0.00 0.00 31
20260503171003 21 80 30.6 33.8 0.00 0.00 0.00 33
20260503151003 18 80 35.4 38.6 0.00 0.00 0.00 40
20260503131003 17 65 22.5 30.6 0.00 0.00 0.00 57
20260503081002 13 50 3.2 6.4 0.00 0.00 0.00 89
20260503072003 12 145 6.4 9.7 0.00 0.00 0.00 95
20260503071002 12 135 3.2 3.2 0.00 0.00 0.00 94
20260503055003 13 105 1.6 4.8 0.00 0.00 0.00 87
20260503054003 13 120 3.2 4.8 0.00 0.00 0.00 86
20260503053002 13 145 1.6 3.2 0.00 0.00 0.00 88
20260503052003 13 180 3.2 6.4 0.00 0.00 0.00 88
20260503051003 13 235 3.2 6.4 0.00 0.00 0.00 88
20260503050003 13 115 0.0 6.4 0.00 0.00 0.00 85
20260503045003 13 205 3.2 6.4 0.00 0.00 0.00 87
20260503044003 13 185 4.8 12.9 0.00 0.00 0.00 89
20260503043004 12 225 11.3 12.9 0.00 0.00 0.00 90
20260503042002 12 230 11.3 12.9 0.00 0.00 0.00 89
20260503041002 12 220 11.3 12.9 0.00 0.00 0.00 90
20260503040003 12 220 12.9 14.5 0.00 0.00 0.00 89
20260503035003 13 225 12.9 16.1 0.00 0.00 0.00 88
20260503034003 13 225 12.9 16.1 0.00 0.00 0.00 86
20260503033003 13 225 14.5 19.3 0.00 0.00 0.00 86
20260503032003 12 230 16.1 20.9 0.00 0.00 0.00 87
20260503031002 12 245 17.7 22.5 0.00 0.00 0.00 91
20260503030003 12 265 12.9 20.9 0.00 0.00 0.00 91
20260503025002 12 275 16.1 22.5 0.00 0.00 0.00 90
20260503024003 13 280 17.7 24.1 0.00 0.00 0.00 88
20260503023003 13 285 19.3 24.1 0.00 0.00 0.00 86
20260503022004 14 285 19.3 22.5 0.00 0.00 0.00 82
20260503021003 13 290 11.3 24.1 0.00 0.00 0.00 82
20260503020004 13 290 20.9 24.1 0.00 0.00 0.00 82
20260503015003 13 290 22.5 25.7 0.00 0.00 0.00 80
20260503014003 14 290 22.5 25.7 0.00 0.00 0.00 79
20260503013003 14 290 19.3 22.5 0.00 0.00 0.00 80
20260503012003 13 285 16.1 24.1 0.00 0.00 0.00 82
20260503011003 13 280 17.7 22.5 0.00 0.00 0.00 86
20260503010004 13 285 16.1 24.1 0.00 0.00 0.00 87
20260503005002 12 285 19.3 27.4 0.00 0.00 0.00 92
20260503004003 12 290 16.1 24.1 0.00 0.00 0.00 93
20260503003003 12 290 17.7 24.1 0.00 0.00 0.00 94
20260503002003 12 290 19.3 27.4 0.00 0.00 0.00 94
20260503001003 12 285 17.7 27.4 0.00 0.00 0.00 94
20260503000003 12 280 19.3 24.1 0.00 0.00 0.00 93
20260502235002 12 290 20.9 27.4 0.00 0.00 0.00 93
20260502234003 12 295 25.7 29.0 0.00 0.00 0.00 95
20260502233008 12 290 25.7 29.0 0.00 0.00 0.00 93
20260502232004 12 285 20.9 27.4 0.00 0.00 0.00 91
20260502231003 12 285 22.5 27.4 0.00 0.00 0.00 94